Regional Weather Roundup
Issued by NWS

Home | Current Version | Previous Version | Text Only | Print | Product List | Glossary Off
Versions: 1 2 3 4 5 6 7 8 9 10 11 12 13 14 15 16 17 18 19 20 21 22 23 24 25 26 27 28 29 30 31 32 33 34 35 36 37 38 39 40 41 42 43 44 45 46 47 48 49 50

071
ASUS43 KDTX 220901
RWRMI
MICHIGAN HOURLY REGIONAL WEATHER ROUNDUP
NATIONAL WEATHER SERVICE DETROIT/PONTIAC MI
500 AM EDT FRI MAY 22 2015

NOTE: "FAIR" INDICATES FEW OR NO CLOUDS BELOW 12,000 FEET WITH NO
SIGNIFICANT WEATHER AND/OR OBSTRUCTION TO VISIBILITY.

MIZ047>049-052>055-059>063-066>070-074>076-081>083-221000-
SOUTHEAST LOWER MICHIGAN

CITY           SKY/WX    TMP DP  RH WIND       PRES   REMARKS
ADRIAN         LGT RAIN  53  41  63 N10       30.06R
ALMA           MOCLDY    42  31  64 NW3       30.09R
ANN ARBOR      MOCLDY    52  42  69 NW8       30.05R
BAD AXE        CLEAR     42  28  56 N9        30.03R
CARO           CLEAR     43  29  58 W6        30.04R
DETROIT CITY   MOCLDY    54  33  45 N9        30.03R
DETROIT        CLOUDY    53  44  71 W6        30.04R
FLINT          MOCLDY    48  29  47 NW8       30.06R
GROSSE ILE     LGT RAIN  54  45  71 W6        30.02R
HILLSDALE      RAIN      51  47  87 NW7       30.07R
HOWELL         PTCLDY    45  30  55 NW3       30.06R

CITY           SKY/WX    TMP DP  RH WIND       PRES   REMARKS
JACKSON        MOCLDY    50  36  58 NW6       30.07R
LAMBERTVILLE   CLOUDY    54  37  54 W5        30.05R
LANSING        CLOUDY    48  28  46 W6        30.09R
LAPEER         MOCLDY    44  32  63 CALM      30.04R
MASON          CLOUDY    45  34  65 CALM      30.07R
MONROE         LGT RAIN  52  41  66 W7        30.03R
MT. CLEMENS    PTCLDY    44  38  79 N5        30.01R
PONTIAC        PTCLDY    49  32  52 N9        30.03R
PORT HOPE        N/A     46  34  62 NW15G25   30.01R
PORT HURON     CLEAR     37  36  93 CALM      30.03R
TRI CITIES     CLEAR     43  29  57 W6        30.07R
MIDLAND        FAIR      37  33  83 CALM      30.06R
TROY           MOCLDY    53  33  47 NW8       30.05R
SAGINAW HB     CLEAR     43  28  56 W5        30.05R
$$
MIZ043>046-050>051-056>058-064>065-071>073-077>080-221000-
SOUTHWEST LOWER MICHIGAN

CITY           SKY/WX    TMP DP  RH WIND       PRES   REMARKS
BATTLE CREEK   PTCLDY    50  31  48 NE7       30.08S
BENTON HARBOR  CLEAR     48  46  93 CALM      30.07R
BIG RAPIDS     CLEAR     40  25  54 CALM      30.09R
COLDWATER      CLOUDY    50  48  93 CALM      30.08R
FREMONT        FAIR      40  27  60 CALM      30.09R
HOLLAND        PTCLDY    50  31  48 NE3       30.10R
GRAND RAPIDS   CLOUDY    49  29  46 CALM      30.09R
IONIA          CLOUDY    48  27  42 N3        30.08R
KALAMAZOO      MOCLDY    52  40  63 NE6       30.07S
LUDINGTON      CLEAR     36  31  83 CALM      30.11R
MARSHALL       MOCLDY    51  26  38 CALM      30.08R
MOUNT PLEASANT CLEAR     41  27  56 CALM      30.07R
MUSKEGON       CLEAR     47  30  51 NE3       30.10R
SOUTH HAVEN    MOCLDY    47  43  84 E3        30.08R
$$
MIZ016>042-221000-
NORTHERN LOWER MICHIGAN

CITY           SKY/WX    TMP DP  RH WIND       PRES   REMARKS
ALPENA         CLEAR     37  30  75 NW5       30.07R WCI  33
BEAVER ISLAND  CLEAR     30  28  92 CALM      30.10R
BELLAIRE       CLEAR     29  28  95 CALM      30.10R
CADILLAC       CLEAR     28  25  87 CALM      30.08R
CHARLEVOIX     CLEAR     38  33  80 CALM      30.12R
FRANKFORT      CLEAR     33  27  78 CALM      30.11R
GAYLORD        CLEAR     31  26  82 CALM      30.07R
HARBOR SPRINGS CLEAR     35  29  80 CALM      30.09R
HOUGHTON LAKE  CLEAR     37  24  59 NW7       30.07R WCI  32
MANISTEE       CLEAR     30  25  80 CALM      30.11R
OSCODA         CLEAR     40  27  58 N7        30.04R
PELLSTON       CLEAR     27  26  96 W5        30.10R WCI  22
ROGERS CITY    CLEAR     33  30  88 W3        30.09R
TRAVERSE CITY  CLEAR     33  28  81 CALM      30.09R
$$
MIZ007>008-015-221000-
EASTERN UPPER MICHIGAN

CITY           SKY/WX    TMP DP  RH WIND       PRES   REMARKS
KINROSS        CLEAR     36  27  69 N5        30.09R WCI  32
NEWBERRY       CLEAR     34  28  80 NW6       30.11R WCI  29
S. S. MARIE    CLEAR     36  21  54 N6        30.08R WCI  31
$$
MIZ004>006-011>014-085-221000-
CENTRAL UPPER MICHIGAN

CITY           SKY/WX    TMP DP  RH WIND       PRES   REMARKS
MANISTIQUE     CLEAR     31  26  78 N6        30.11R WCI  26
ESCANABA       CLEAR     34  19  55 NW5       30.13R WCI  30
MENOMINEE      CLEAR     36  27  69 NW5       30.13R WCI  32
SAWYER-GWINN   CLEAR     30  20  65 NW3       30.12R
$$
MIZ001>003-009>011-084-221000-
WESTERN UPPER MICHIGAN

CITY           SKY/WX    TMP DP  RH WIND       PRES   REMARKS
IRON MOUNTAIN  CLEAR     29  22  75 N3        30.13R
HOUGHTON       CLEAR     35  22  58 CALM      30.13R
COPPER HARBOR    N/A     33  28  81 SW5       30.14R WCI  29
IRONWOOD       CLEAR     34  30  86 E3        30.11R
$$

ABBREVIATIONS USED IN REMARKS
   TC - TEMPERATURE IN CELSIUS
  WCI - WIND CHILL INDEX
   HX - HEAT INDEX
  VSB - VISIBILITY




USA.gov is the U.S. government's official web portal to all federal, state and local government web resources and services.